EW5802 Weather Reports


Display with metric or nautical units.
time (UTC)temp
F
wind
direction
speed
MPH
gust
MPH
rain 1hr
in
rain 24hr
in
rain mn
in
humidity
%
barometer
mb
20260504081705 37 298 0.0 0.0 0.00 0.00 0.00 83 1014.6
20260504081204 37 298 0.0 0.0 0.00 0.00 0.00 84 1014.6
20260504080705 37 298 0.0 0.0 0.00 0.00 0.00 84 1014.7
20260504080205 37 298 0.0 0.0 0.00 0.00 0.00 83 1014.6
20260504070205 38 298 0.0 0.0 0.00 0.00 0.00 81 1014.7
20260504050705 40 298 0.0 0.0 0.00 0.00 0.00 76 1014.8
20260504050205 40 298 0.0 0.0 0.00 0.00 0.00 76 1014.8
20260504045705 40 298 0.0 0.0 0.00 0.00 0.00 76 1014.8
20260504045204 40 298 0.0 0.0 0.00 0.00 0.00 77 1014.8
20260504044705 40 298 0.0 0.0 0.00 0.00 0.00 76 1014.8
20260504044205 40 298 0.0 0.0 0.00 0.00 0.00 75 1014.8
20260504043705 41 298 0.0 0.0 0.00 0.00 0.00 76 1014.8
20260504043205 41 298 0.0 0.0 0.00 0.00 0.00 74 1014.8
20260504042705 42 298 0.0 0.0 0.00 0.00 0.00 73 1014.8
20260504042205 42 298 0.0 0.0 0.00 0.00 0.00 69 1014.8
20260504041705 42 298 0.0 0.0 0.00 0.00 0.00 70 1014.7
20260504041205 42 298 0.0 0.0 0.00 0.00 0.00 70 1014.8
20260504040705 42 298 0.0 0.0 0.00 0.00 0.00 70 1014.8
20260504040205 42 298 0.0 0.0 0.00 0.00 0.00 70 1014.9
20260504035705 41 298 0.0 0.0 0.00 0.00 0.00 72 1014.9
20260504035204 41 298 0.0 0.0 0.00 0.00 0.00 73 1014.8
20260504034704 41 298 0.0 2.0 0.00 0.00 0.00 73 1014.8
20260504034204 42 298 1.0 1.0 0.00 0.00 0.00 72 1014.7
20260504033704 43 298 0.0 0.0 0.00 0.00 0.00 72 1014.6
20260504033204 44 298 0.0 2.0 0.00 0.00 0.00 70 1014.5
20260504032204 44 298 0.0 1.0 0.00 0.00 0.00 69 1014.5
20260504031705 45 298 0.0 0.0 0.00 0.00 0.00 67 1014.6
20260504031205 46 298 0.0 2.0 0.00 0.00 0.00 62 1014.6
20260504030705 46 298 0.0 1.0 0.00 0.00 0.00 63 1014.4
20260504030205 46 298 1.0 1.0 0.00 0.00 0.00 62 1014.4
20260504025205 45 298 1.0 1.0 0.00 0.00 0.00 65 1014.4
20260504024205 45 298 0.0 2.0 0.00 0.00 0.00 66 1014.5
20260504023704 44 298 0.0 1.0 0.00 0.00 0.00 67 1014.5
20260504022704 47 298 0.0 2.0 0.00 0.00 0.00 60 1014.4
20260504022204 47 298 1.0 1.0 0.00 0.00 0.00 62 1014.3
20260504021704 46 298 1.0 1.0 0.00 0.00 0.00 61 1014.3
20260504021204 46 298 0.0 0.0 0.00 0.00 0.00 64 1014.3
20260504020704 46 298 0.0 0.0 0.00 0.00 0.00 63 1014.3
20260504015704 46 298 0.0 0.0 0.00 0.00 0.00 67 1014.3
20260504015205 47 298 0.0 0.0 0.00 0.00 0.00 64 1014.2
20260504014704 48 298 0.0 0.0 0.00 0.00 0.00 63 1014.2
20260504014204 48 298 0.0 2.0 0.00 0.00 0.00 61 1014.2
20260504013704 48 298 1.0 1.0 0.00 0.00 0.00 63 1014.2
20260504013205 47 298 1.0 1.0 0.00 0.00 0.00 64 1014.2
20260504012705 47 298 0.0 1.0 0.00 0.00 0.00 64 1014.2
20260504012205 47 298 0.0 0.0 0.00 0.00 0.00 65 1014.1
20260504011704 48 298 0.0 1.0 0.00 0.00 0.00 63 1014.1
20260504011204 49 298 0.0 2.0 0.00 0.00 0.00 62 1014.0
20260504010704 49 298 0.0 2.0 0.00 0.00 0.00 61 1013.9
20260504010204 49 298 1.0 1.0 0.00 0.00 0.00 59 1013.9
20260504005704 49 298 0.0 1.0 0.00 0.00 0.00 60 1013.8
20260504005204 49 298 0.0 2.0 0.00 0.00 0.00 57 1013.8
20260504004704 49 298 0.0 1.0 0.00 0.00 0.00 61 1013.8
20260504004204 49 298 0.0 1.0 0.00 0.00 0.00 59 1013.8
20260504003705 50 298 0.0 2.0 0.00 0.00 0.00 56 1013.8
20260504003204 50 298 0.0 1.0 0.00 0.00 0.00 57 1013.7
20260504002705 50 298 0.0 2.0 0.00 0.00 0.00 57 1013.7
20260504002205 50 298 1.0 2.0 0.00 0.00 0.00 54 1013.6
20260504001206 51 298 0.0 0.0 0.00 0.00 0.00 54 1013.6
20260504000705 51 298 0.0 0.0 0.00 0.00 0.00 53 1013.5
20260504000205 52 298 0.0 0.0 0.00 0.00 0.00 51 1013.5
20260503235705 52 298 0.0 2.0 0.00 0.00 0.00 55 1013.4
20260503235205 53 298 1.0 2.0 0.00 0.00 0.00 50 1013.4
20260503234705 53 298 1.0 1.0 0.00 0.00 0.00 49 1013.3
20260503234205 54 298 0.0 2.0 0.00 0.00 0.00 51 1013.3
20260503233205 55 298 0.0 2.0 0.00 0.00 0.00 49 1013.1
20260503232704 56 298 0.0 3.0 0.00 0.00 0.00 49 1013.2
20260503232205 58 283 1.0 3.0 0.00 0.00 0.00 43 1013.1
20260503231205 58 257 1.0 6.0 0.00 0.00 0.00 38 1013.1
20260503230705 59 278 2.0 7.0 0.00 0.00 0.00 36 1013.1
20260503230205 59 256 2.0 7.0 0.00 0.00 0.00 37 1013.1
20260503225705 59 229 1.0 8.0 0.00 0.00 0.00 37 1013.1
20260503224705 60 226 2.0 7.0 0.00 0.00 0.00 37 1013.0
20260503223705 60 293 3.0 8.0 0.00 0.00 0.00 36 1013.0
20260503223205 60 258 4.0 13.0 0.00 0.00 0.00 34 1013.0
20260503222705 59 273 2.0 8.0 0.00 0.00 0.00 35 1013.1
20260503221705 60 252 4.0 12.0 0.00 0.00 0.00 34 1013.1
20260503221204 60 239 2.0 8.0 0.00 0.00 0.00 36 1013.1
20260503220704 61 256 4.0 8.0 0.00 0.00 0.00 33 1013.1
20260503220205 61 215 3.0 7.0 0.00 0.00 0.00 33 1013.1
20260503215705 61 273 5.0 12.0 0.00 0.00 0.00 34 1013.2
20260503215205 61 301 3.0 12.0 0.00 0.00 0.00 33 1013.1
20260503214705 62 272 6.0 12.0 0.00 0.00 0.00 32 1013.1
20260503214204 61 205 3.0 8.0 0.00 0.00 0.00 34 1013.0
20260503212705 62 297 2.0 6.0 0.00 0.00 0.00 35 1013.1
20260503211705 61 260 4.0 12.0 0.00 0.00 0.00 33 1013.0
20260503210705 62 270 1.0 13.0 0.00 0.00 0.00 35 1013.0
20260503210205 61 272 5.0 10.0 0.00 0.00 0.00 34 1013.0
20260503205205 62 329 2.0 15.0 0.00 0.00 0.00 36 1013.1
20260503204205 62 330 6.0 12.0 0.00 0.00 0.00 35 1013.1
20260503203704 61 259 6.0 14.0 0.00 0.00 0.00 33 1013.1
20260503202705 60 349 4.0 9.0 0.00 0.00 0.00 35 1013.2
20260503202204 61 328 6.0 13.0 0.00 0.00 0.00 33 1013.3
20260503201705 61 134 3.0 10.0 0.00 0.00 0.00 34 1013.3
20260503201205 61 297 3.0 10.0 0.00 0.00 0.00 34 1013.3
20260503200704 62 213 6.0 14.0 0.00 0.00 0.00 34 1013.3
20260503200205 62 241 5.0 12.0 0.00 0.00 0.00 36 1013.4
20260503195705 61 210 2.0 12.0 0.00 0.00 0.00 35 1013.4
20260503195204 60 267 3.0 12.0 0.00 0.00 0.00 38 1013.5
20260503194205 60 251 3.0 12.0 0.00 0.00 0.00 34 1013.7
20260503193705 60 259 2.0 13.0 0.00 0.00 0.00 35 1013.7
20260503193205 60 240 6.0 13.0 0.00 0.00 0.00 38 1013.7
20260503192705 61 296 3.0 9.0 0.00 0.00 0.00 32 1013.7
20260503192205 61 267 6.0 14.0 0.00 0.00 0.00 36 1013.8
20260503191704 60 256 2.0 8.0 0.00 0.00 0.00 34 1013.8
20260503190705 60 231 5.0 13.0 0.00 0.00 0.00 34 1014.0
20260503190205 60 263 6.0 12.0 0.00 0.00 0.00 35 1014.1
20260503185704 60 262 8.0 17.0 0.00 0.00 0.00 34 1014.2
20260503185204 61 242 2.0 8.0 0.00 0.00 0.00 39 1014.2
20260503184204 59 211 3.0 12.0 0.00 0.00 0.00 34 1014.3
20260503183704 60 1 4.0 10.0 0.00 0.00 0.00 35 1014.4
20260503183204 60 310 7.0 13.0 0.00 0.00 0.00 36 1014.4
20260503182704 61 320 3.0 12.0 0.00 0.00 0.00 37 1014.3
20260503181704 59 159 2.0 10.0 0.00 0.00 0.00 36 1014.1
20260503181204 59 250 5.0 14.0 0.00 0.00 0.00 36 1014.4
20260503180204 59 205 4.0 13.0 0.00 0.00 0.00 33 1014.4
20260503175704 59 136 2.0 9.0 0.00 0.00 0.00 35 1014.4
20260503175204 58 222 2.0 5.0 0.00 0.00 0.00 37 1014.6
20260503174204 59 264 5.0 12.0 0.00 0.00 0.00 38 1014.6
20260503173704 58 95 5.0 13.0 0.00 0.00 0.00 35 1014.5
20260503173204 58 288 5.0 17.0 0.00 0.00 0.00 38 1014.8
20260503172705 57 209 5.0 9.0 0.00 0.00 0.00 36 1014.5
20260503172204 57 58 2.0 12.0 0.00 0.00 0.00 38 1014.8
20260503171704 57 213 7.0 13.0 0.00 0.00 0.00 39 1014.9
20260503171204 57 219 6.0 12.0 0.00 0.00 0.00 36 1014.9
20260503150705 53 287 6.0 10.0 0.00 0.00 0.00 42 1016.1
20260503150205 53 283 6.0 10.0 0.00 0.00 0.00 43 1016.2
20260503131205 49 213 2.0 6.0 0.00 0.00 0.00 49 1016.5
20260503130704 48 254 6.0 13.0 0.00 0.00 0.00 48 1016.5
20260503130205 48 224 5.0 12.0 0.00 0.00 0.00 49 1016.4
20260503120205 44 228 3.0 5.0 0.00 0.00 0.00 58 1016.3
20260503110705 37 226 0.0 3.0 0.00 0.00 0.00 76 1015.9
20260503100204 39 137 1.0 2.0 0.00 0.00 0.00 68 1015.0
20260503090204 40 235 1.0 3.0 0.00 0.00 0.00 66 1014.4